Location: Elk Horn Observatory
(36.6768°N, 80.8309°W)
Time: 07:24:04
(UTC-05:00)

Envisat - Pass Details

Date: 27 January 2019
Orbit: 764 x 766 km, 98.2° (Epoch: 20 February)

Event Time Altitude Azimuth Distance (km) Brightness Sun altitude
Rises 20:19:53 0° 206° (SSW) 3,217 6.5 -31.4°
Reaches altitude 10° 20:22:55 10° 225° (SW) 2,296 5.9 -32.0°
Maximum altitude 20:26:15 18° 267° (W) 1,828 5.6 -32.7°
Drops below altitude 10° 20:29:37 10° 309° (NW) 2,305 6.0 -33.3°
Sets 20:32:42 0° 328° (NNW) 3,236 6.6 -33.9°
